Wetbulb
45.79 45.65 45.42 45.00 44.59 44.68 44.83 44.53 43.95 43.98 44.28 44.54 44.38 44.36 44.50 44.40 44.23 44.46 44.62 44.82 44.72 44.73 44.76 44.98 45.06 45.26 45.44 45.56 45.48 45.41 45.40 45.40 45.44 44.94 44.36 44.51 44.88 45.06 45.16 45.20 45.23 45.16 45.04 45.01 45.12 45.12 45.06 45.24 45.24 45.26 45.39 45.67 45.84 46.11 46.34 46.56 46.64 46.52 46.33 46.19 46.06 46.08 46.19 46.12 46.06 46.19 46.24 46.23 46.04
45.69 45.55 44.85 43.14 43.22 44.11 44.73 44.53 44.41 44.32 44.46 45.03 44.52 44.31 44.34 44.22 44.10 44.20 44.43 44.58 44.76 44.94 45.00 45.02 45.22 45.31 45.33 45.29 45.27 45.26 45.24 45.24 45.17 45.01 44.75 44.87 45.06 45.17 45.10 44.94 44.96 44.94 44.94 44.80 44.73 44.52 44.41 44.52 44.27 44.05 44.09 44.50 44.85 45.18 45.64 46.37 46.53 46.37 45.99 45.94 45.68 45.71 45.60 45.40 45.56 45.87 46.08 46.04 46.08
46.09 45.96 45.58 44.71 44.68 44.68 44.57 44.38 44.52 44.60 44.69 44.81 44.82 44.66 44.54 44.40 44.22 44.11 44.28 44.61 44.98 45.09 44.97 44.80 45.51 45.54 45.39 45.45 45.41 45.33 45.24 45.19 45.03 44.91 44.73 44.70 44.71 44.80 44.66 44.59 44.68 44.54 44.37 44.49 44.61 44.51 44.41 44.53 43.95 43.39 43.06 43.12 43.37 43.60 44.13 45.11 45.46 45.47 45.39 45.54 45.44 45.36 45.14 44.89 45.21 45.44 45.51 45.30 45.76
46.23 45.78 45.32 44.59 44.47 44.33 44.19 43.82 43.82 43.89 44.17 44.52 44.75 44.80 44.78 44.68 44.57 44.52 44.54 44.75 44.94 44.85 44.75 44.84 46.35 46.67 46.30 45.67 45.30 45.14 44.81 44.19 44.39 44.31 44.20 44.10 44.12 44.10 44.17 44.25 43.98 44.05 44.32 44.63 44.67 44.60 44.63 44.44 43.81 43.30 43.06 43.18 43.05 43.02 43.06 43.54 44.01 44.11 44.25 44.79 45.04 45.09 45.05 44.83 45.19 45.18 45.09 45.04 45.35
46.02 45.69 45.30 44.94 44.49 44.22 44.07 43.83 43.46 43.61 43.96 44.30 44.07 43.91 43.98 44.47 44.68 44.63 44.53 44.44 44.30 44.33 44.61 45.19 46.47 46.83 46.35 45.29 44.86 44.61 44.40 44.05 42.84 43.04 43.59 43.52 43.61 43.64 43.68 43.75 43.59 43.63 43.86 44.15 44.26 44.55 44.57 44.26 43.55 43.29 43.24 43.27 42.87 42.80 43.03 43.41 43.40 43.26 43.32 43.62 43.91 44.13 44.30 44.46 44.65 44.79 44.85 44.75 44.90
45.39 45.38 45.39 45.43 44.63 44.02 43.73 43.83 43.73 43.68 43.83 43.95 43.46 43.27 43.35 43.61 43.75 43.68 43.59 43.61 43.85 44.31 44.58 44.60 44.79 44.65 44.54 44.55 44.17 43.92 43.85 43.82 43.30 43.18 43.32 43.27 43.23 43.27 43.27 43.35 43.54 43.75 43.87 43.88 44.05 44.42 44.48 44.17 43.26 42.99 43.08 43.05 43.00 43.18 43.49 43.58 43.10 42.84 42.75 42.67 42.97 43.23 43.40 43.55 43.81 44.13 44.38 44.36 44.48
44.31 44.22 44.31 44.43 44.07 43.82 43.76 43.93 44.10 44.00 43.83 43.66 43.20 42.85 42.87 43.28 43.38 43.47 43.57 43.66 43.84 43.93 43.93 43.46 43.76 43.77 43.66 43.74 43.49 43.30 43.06 42.96 43.04 43.08 43.01 42.71 42.72 42.81 42.95 43.02 43.44 43.47 43.49 43.53 43.60 43.64 43.76 43.80 42.80 42.27 41.99 41.74 42.11 42.79 43.37 43.33 42.91 42.50 42.26 42.17 42.49 42.72 42.96 43.25 43.37 43.47 43.53 43.75 43.90
42.92 42.72 42.76 43.00 43.40 43.50 43.48 43.57 43.42 43.24 42.92 42.64 42.56 42.52 42.72 43.11 43.16 43.18 43.27 43.33 43.30 43.35 43.27 43.08 43.52 43.46 43.28 43.07 42.86 42.81 42.69 42.59 42.48 42.54 42.57 42.41 42.39 42.50 42.63 42.85 42.93 42.93 43.05 43.25 43.19 43.11 43.11 43.03 42.45 42.19 42.03 41.91 41.77 42.09 42.75 43.42 43.18 42.79 42.45 42.15 42.31 42.62 43.00 43.29 43.64 43.49 43.16 43.18 43.24
42.64 42.77 43.08 43.26 43.28 43.16 43.04 42.88 42.71 42.44 42.16 41.91 42.02 42.31 42.55 42.65 42.72 42.73 42.65 42.52 42.42 42.63 42.75 42.68 42.77 42.70 42.53 42.32 42.29 42.24 42.31 42.15 42.07 42.10 42.17 42.25 42.20 42.05 42.05 42.13 42.07 42.22 42.25 42.48 42.60 42.66 42.55 42.12 41.90 41.87 41.90 41.79 41.59 41.99 42.63 43.32 43.24 42.88 42.49 41.99 42.02 42.36 42.75 43.20 43.39 43.29 43.04 42.86 42.87
42.65 42.84 42.94 42.81 42.85 42.62 42.33 42.35 42.25 41.94 41.76 41.57 41.78 41.98 41.92 41.09 41.63 42.03 42.21 42.09 42.15 42.13 42.11 42.06 42.18 42.12 42.08 42.04 42.02 42.03 42.10 42.07 42.00 41.93 41.93 41.78 41.62 41.62 41.66 41.48 41.56 41.45 41.46 41.78 41.79 41.91 41.80 41.30 41.21 41.33 41.62 41.65 41.76 42.00 42.36 42.88 42.68 42.51 42.23 41.38 41.71 42.19 42.53 42.66 42.91 42.85 42.68 42.40 42.58
42.38 42.36 42.28 42.08 42.07 41.84 41.43 41.47 41.33 41.30 41.28 41.36 41.52 41.74 41.68 41.12 41.62 41.77 41.86 42.07 41.87 41.63 41.63 41.94 42.00 41.91 41.79 41.73 41.89 41.83 41.88 41.85 41.73 41.62 41.42 41.22 40.98 40.86 40.89 40.76 40.79 40.66 40.64 40.87 41.08 40.99 40.77 40.51 40.57 40.69 40.97 41.01 41.30 41.58 41.73 42.06 41.98 41.85 41.81 41.41 41.65 41.82 42.06 42.11 42.38 42.30 42.14 42.13 42.29
41.82 41.67 41.71 41.65 41.60 41.30 40.94 40.74 40.76 40.80 40.96 40.98 41.13 41.34 41.49 41.69 41.69 41.53 41.33 41.46 41.06 41.02 41.28 41.85 41.96 41.80 41.67 41.47 41.66 41.47 41.39 41.52 41.20 40.92 40.55 40.31 40.18 40.09 39.91 39.85 39.78 39.71 39.76 39.98 40.21 40.05 39.83 39.82 39.84 39.92 40.11 40.28 40.46 40.75 41.04 41.20 41.13 41.05 41.16 41.32 41.33 41.41 41.40 41.61 41.94 41.92 41.90 42.07 41.86
41.35 41.23 41.23 41.33 41.22 40.93 40.66 40.54 40.64 40.76 40.88 40.91 40.99 41.08 41.13 41.16 41.09 40.97 40.77 40.78 40.54 40.72 40.99 41.49 41.50 41.52 41.43 41.10 41.12 41.13 40.89 40.66 40.26 39.77 39.41 39.29 39.17 39.04 38.96 38.87 38.93 38.95 39.03 39.30 39.59 39.42 39.22 39.13 39.18 39.11 39.11 39.34 39.70 39.97 40.29 40.45 40.37 40.21 40.25 40.45 40.61 40.61 40.76 41.08 41.45 41.77 41.84 41.80 41.53
40.99 40.94 40.90 40.99 40.79 40.66 40.54 40.51 40.58 40.76 40.80 40.76 40.79 40.92 40.94 40.90 40.68 40.57 40.49 40.61 40.64 40.77 40.96 41.19 41.04 40.89 40.80 40.76 40.55 40.24 39.94 39.58 39.23 38.97 38.62 38.44 38.38 38.38 38.38 38.31 38.46 38.45 38.59 38.86 39.14 39.06 38.74 38.48 38.51 38.48 38.49 38.54 38.81 39.19 39.46 39.74 39.62 39.54 39.58 39.62 39.69 39.89 40.29 40.57 41.09 41.29 41.37 41.25 41.13
40.62 40.62 40.57 40.68 40.59 40.67 40.71 40.63 40.63 40.62 40.65 40.54 40.66 40.71 40.75 40.62 40.44 40.36 40.50 40.77 40.82 40.95 40.92 40.86 40.57 40.46 40.44 40.48 40.04 39.68 39.35 38.92 38.58 38.26 38.05 37.86 37.95 37.95 37.95 37.95 38.06 38.15 38.21 38.35 38.57 38.68 38.57 38.32 38.17 38.10 38.04 37.97 38.20 38.46 38.69 38.96 39.03 39.03 39.07 39.14 39.26 39.34 39.69 40.05 40.45 40.69 40.73 40.68 40.68
40.23 40.38 40.59 40.67 40.63 40.64 40.59 40.51 40.56 40.47 40.42 40.37 40.58 40.60 40.56 40.54 40.61 40.65 40.64 40.74 40.82 40.67 40.56 40.43 40.21 40.11 40.03 39.68 39.53 39.22 38.78 38.42 38.12 37.82 37.60 37.52 37.52 37.63 37.63 37.59 37.70 37.78 37.91 37.93 38.04 38.23 38.39 38.31 38.27 38.20 38.04 37.82 37.78 37.93 38.08 38.23 38.45 38.60 38.63 38.79 38.90 38.98 39.26 39.42 39.81 39.97 40.21 40.33 40.13
40.13 40.37 40.59 40.61 40.58 40.44 40.44 40.44 40.43 40.33 40.28 40.31 40.37 40.38 40.44 40.51 40.68 40.55 40.27 40.24 40.30 40.20 40.00 39.96 39.66 39.50 39.20 38.72 38.74 38.55 38.29 37.94 37.75 37.45 37.30 37.18 37.25 37.25 37.32 37.40 37.51 37.66 37.75 37.72 37.66 37.63 37.74 38.04 38.23 38.18 38.14 37.98 37.76 37.69 37.81 37.81 37.91 38.13 38.28 38.39 38.50 38.70 38.82 38.79 39.14 39.38 39.69 39.81 39.65
40.24 40.46 40.54 40.54 40.44 40.36 40.32 40.30 40.25 40.18 40.11 40.12 40.19 40.31 40.47 40.57 40.60 40.40 40.19 40.06 40.21 39.84 39.47 39.25 39.13 38.90 38.67 38.34 38.23 38.00 37.74 37.59 37.40 37.29 37.25 37.20 37.24 37.24 37.24 37.32 37.43 37.58 37.66 37.52 37.44 37.37 37.41 37.56 37.77 37.90 37.96 37.86 37.68 37.65 37.63 37.71 37.59 37.73 37.88 38.03 38.19 38.38 38.50 38.55 38.87 38.99 39.07 39.22 39.18
40.34 40.48 40.48 40.39 40.24 40.18 40.07 39.89 39.89 39.94 39.92 39.96 40.07 40.20 40.41 40.59 40.58 40.30 40.20 40.10 39.82 39.41 39.07 38.65 38.46 38.27 38.12 37.89 37.82 37.52 37.22 37.29 37.25 37.25 37.29 37.33 37.29 37.26 37.26 37.29 37.41 37.56 37.55 37.48 37.36 37.35 37.31 37.45 37.58 37.60 37.55 37.50 37.46 37.54 37.47 37.47 37.41 37.49 37.52 37.67 37.75 37.80 38.04 38.28 38.53 38.72 38.80 38.84 38.88
40.34 40.34 40.26 40.29 40.18 40.12 39.94 39.80 39.71 39.80 39.82 39.93 40.07 40.17 40.30 40.43 40.42 40.08 39.74 39.47 39.29 39.07 38.73 38.20 37.74 37.63 37.59 37.55 37.46 37.38 37.23 37.21 37.34 37.34 37.38 37.39 37.28 37.24 37.28 37.31 37.31 37.42 37.42 37.37 37.32 37.24 37.16 37.11 37.15 37.13 36.90 36.66 36.41 36.25 36.17 36.09 36.10 36.10 36.21 36.25 36.46 36.57 36.83 37.15 37.48 37.68 37.91 38.22 38.57
40.11 40.04 40.13 40.16 40.10 39.96 39.82 39.82 39.70 39.76 39.75 39.85 40.01 40.02 40.10 40.12 39.98 39.64 39.26 38.92 38.76 38.54 38.19 37.78 37.40 37.17 37.06 37.09 37.07 37.09 37.13 37.08 37.32 37.30 37.21 37.21 37.15 37.11 37.22 37.33 37.29 37.29 37.17 37.13 36.88 36.71 36.46 36.27 36.00 35.73 35.40 34.97 34.65 34.37 34.29 34.06 34.06 34.10 34.21 34.24 34.49 34.80 35.15 35.44 35.65 35.98 36.38 36.74 37.25
39.98 40.03 40.00 39.96 39.83 39.73 39.63 39.55 39.58 39.64 39.74 39.75 39.78 39.80 39.67 39.52 39.39 39.14 38.92 38.69 38.39 38.01 37.56 37.26 37.10 36.98 36.93 36.89 36.79 36.88 36.90 36.88 37.11 37.12 37.10 37.10 37.04 37.13 37.29 37.40 37.10 36.80 36.42 36.13 35.65 35.25 34.96 34.63 34.30 33.96 33.65 33.24 33.11 33.09 32.96 32.65 32.50 32.49 32.67 32.87 33.05 33.43 33.82 33.91 34.30 34.49 34.78 35.07 35.60
39.92 39.92 39.92 39.83 39.66 39.21 38.92 39.09 39.33 39.47 39.49 39.50 39.47 39.40 39.14 38.89 38.78 38.64 38.54 38.27 37.74 37.39 37.23 37.18 37.17 37.12 37.10 36.99 36.99 36.92 36.83 36.70 36.83 36.92 37.05 37.13 37.18 37.18 37.11 36.88 36.24 35.58 34.88 34.42 34.02 33.68 33.37 33.12 32.93 32.71 32.47 32.19 32.20 32.22 32.12 31.90 31.72 31.76 31.88 32.08 32.25 32.49 32.83 33.13 33.42 33.62 33.81 34.21 34.51
39.79 39.68 39.64 39.50 39.35 39.04 38.89 39.03 39.10 39.12 39.10 39.14 39.02 38.84 38.62 38.30 38.18 38.12 38.00 37.69 37.47 37.42 37.39 37.21 37.37 37.45 37.47 37.44 37.30 37.13 36.80 36.47 36.53 36.71 36.88 37.06 37.15 37.11 36.74 36.12 35.17 34.45 33.79 33.43 32.83 32.56 32.36 31.77 31.72 31.63 31.54 31.39 31.32 31.30 31.33 31.46 31.33 31.32 31.32 31.42 31.61 31.71 32.03 32.33 32.67 32.98 33.16 33.22 33.62
39.50 39.36 39.10 38.92 38.78 38.72 38.75 38.81 38.83 38.84 38.81 38.76 38.57 38.31 37.99 37.75 37.70 37.51 37.37 37.14 37.20 37.25 37.35 37.39 37.47 37.54 37.50 37.41 37.32 37.24 36.96 36.70 36.62 36.62 36.73 36.89 36.97 36.63 35.90 34.85 34.19 33.61 33.14 32.53 32.25 31.89 31.50 30.96 30.96 30.90 30.82 30.78 30.71 30.72 30.78 30.90 30.98 31.03 31.03 31.17 31.14 31.07 31.18 31.47 31.83 32.08 32.39 32.75 33.03
39.21 38.96 38.70 38.53 38.43 38.37 38.46 38.55 38.59 38.63 38.56 38.40 38.13 37.76 37.47 37.15 37.07 36.88 36.72 36.48 36.76 37.05 37.24 37.31 37.26 37.06 36.79 37.02 36.95 36.92 36.78 36.72 36.73 36.73 36.61 36.50 36.54 35.94 35.14 34.01 33.35 32.94 32.66 32.18 31.68 31.35 31.24 31.15 31.00 30.63 30.39 30.41 30.38 30.21 30.16 30.21 30.60 30.71 30.91 31.13 31.13 30.96 30.85 30.76 30.98 31.33 31.54 31.92 32.17
38.77 38.55 38.34 38.32 38.22 38.23 38.27 38.53 38.50 38.38 38.12 37.93 37.52 37.11 36.82 36.72 36.52 36.31 36.15 36.11 36.27 36.60 36.97 37.02 37.00 36.45 36.03 36.58 36.60 36.56 36.34 36.19 36.41 36.49 36.37 36.33 35.92 35.19 34.37 33.39 32.98 32.74 32.39 31.92 31.45 31.13 31.05 31.18 31.05 30.84 30.63 30.44 30.23 30.03 29.94 29.90 30.42 30.86 31.07 31.04 31.12 31.19 31.13 30.95 30.88 31.08 31.24 31.45 31.99
38.32 38.15 38.08 38.09 37.99 38.03 38.22 38.36 38.06 37.76 37.46 37.24 36.91 36.66 36.45 36.26 36.01 35.89 35.77 35.71 35.84 36.03 36.17 36.46 36.55 36.23 35.85 35.70 35.77 36.01 36.05 35.98 35.89 35.91 36.10 36.11 35.61 34.75 33.77 32.78 32.73 32.47 31.93 31.54 31.25 31.15 31.11 31.13 31.14 31.07 30.81 30.23 30.34 30.33 30.28 30.31 30.45 30.61 30.68 30.97 30.93 31.06 31.32 31.46 31.53 31.52 31.47 31.59 31.84
38.06 37.95 37.89 37.78 37.74 37.82 37.93 37.82 37.51 37.22 36.92 36.74 36.56 36.33 36.04 35.78 35.59 35.56 35.50 35.51 35.48 35.35 35.27 35.36 35.47 35.46 35.23 34.86 35.06 35.39 35.52 35.49 35.65 35.69 35.64 35.55 34.83 33.94 32.96 32.30 31.92 31.57 31.47 31.29 31.19 31.15 31.28 31.30 31.22 31.15 31.05 30.89 30.59 30.47 30.39 30.11 29.96 29.93 30.05 30.41 30.49 30.66 30.97 31.12 31.34 31.61 31.86 32.00 32.00
38.08 37.93 37.74 37.59 37.55 37.55 37.40 37.29 37.07 36.81 36.52 36.26 36.05 35.78 35.43 35.28 35.18 35.13 35.08 35.07 34.99 34.90 34.85 34.85 34.86 34.60 34.43 34.53 34.67 34.76 34.80 34.91 35.31 35.37 35.24 34.97 33.96 33.14 32.36 31.73 31.80 31.69 31.48 31.23 31.19 31.24 31.25 31.35 31.21 31.14 30.98 30.89 30.62 30.54 30.46 30.31 30.13 30.06 29.93 29.96 30.29 30.54 30.67 30.73 31.02 31.32 31.55 31.86 32.21
38.01 37.89 37.66 37.42 37.29 37.14 36.97 36.88 36.58 36.32 35.97 35.70 35.40 35.12 34.88 34.69 34.73 34.76 34.79 34.77 34.68 34.61 34.52 34.63 34.46 34.26 34.27 34.39 34.41 34.40 34.46 34.68 34.84 34.82 34.61 34.06 32.75 32.08 31.71 31.46 31.59 31.48 31.16 31.15 31.03 31.15 31.17 31.18 31.16 31.05 30.93 30.75 30.43 30.37 30.43 30.37 30.20 30.13 30.12 30.14 30.32 30.56 30.71 30.87 31.03 31.22 31.34 31.61 31.81
37.92 37.76 37.52 37.13 36.88 36.69 36.56 36.36 36.09 35.82 35.47 35.07 34.85 34.65 34.50 34.35 34.48 34.57 34.58 34.50 34.44 34.30 34.20 34.08 33.96 33.85 33.89 34.06 34.08 34.14 34.24 34.32 34.20 34.00 33.52 32.56 31.76 31.25 30.98 31.10 31.07 30.94 30.86 30.93 30.95 30.91 31.04 31.11 31.09 31.01 30.89 30.81 30.40 30.42 30.59 30.50 30.39 30.39 30.48 30.60 30.74 30.93 31.00 30.91 30.98 31.20 31.41 31.38 31.68
37.92 37.57 37.18 36.70 36.42 36.14 35.96 35.74 35.54 35.15 34.90 34.58 34.37 34.28 34.18 34.17 34.27 34.34 34.40 34.26 34.09 33.93 33.74 33.47 33.42 33.39 33.42 33.51 33.64 33.71 33.84 33.86 33.69 33.09 32.39 31.57 31.07 30.57 30.33 30.18 30.63 30.79 30.91 30.82 30.81 30.82 30.88 31.03 31.01 31.06 30.91 30.75 30.59 30.59 30.75 30.79 30.56 30.56 30.67 30.86 31.06 31.35 31.54 31.61 31.51 31.49 31.66 31.67 31.78
37.88 37.27 36.85 36.30 35.82 35.50 35.26 35.18 34.87 34.67 34.43 34.14 33.97 33.97 33.87 33.68 33.63 33.61 33.65 33.64 33.66 33.61 33.51 33.43 33.45 33.45 33.49 33.66 33.51 33.42 33.21 33.07 32.94 32.56 31.96 31.32 30.66 30.16 29.93 29.89 30.32 30.67 30.89 30.74 30.79 30.85 30.92 30.98 31.06 31.05 30.94 30.81 30.81 30.81 30.93 30.88 30.71 30.74 30.91 31.05 31.41 31.70 32.00 31.99 31.92 31.96 32.00 32.02 31.94
37.40 36.87 36.25 35.78 35.27 34.93 34.67 34.49 34.29 34.15 33.83 33.60 33.47 33.45 33.39 33.24 33.12 33.12 33.16 33.00 32.98 33.13 33.36 33.51 33.74 33.77 33.78 33.87 33.64 33.22 32.81 32.49 32.13 31.61 31.13 30.70 30.22 29.85 29.60 29.72 30.27 30.65 30.80 30.77 30.84 30.94 30.98 31.03 31.05 31.11 30.95 30.64 30.72 30.93 30.99 31.01 30.98 31.09 31.29 31.41 31.64 31.86 32.19 32.24 32.24 32.34 32.37 32.36 32.28
36.89 36.42 35.78 35.21 34.63 34.19 34.01 33.75 33.61 33.32 33.14 33.01 32.92 32.78 32.75 32.82 32.90 33.08 33.06 32.74 32.63 32.79 33.06 33.24 33.46 33.49 33.34 33.09 32.90 32.43 31.89 31.41 31.06 30.82 30.75 30.56 30.08 29.64 29.39 29.60 30.42 30.77 30.81 30.82 30.96 30.92 30.99 31.07 31.05 31.11 31.05 30.88 30.92 31.04 31.17 31.11 31.20 31.50 31.78 31.80 31.92 32.45 32.80 32.77 32.73 32.84 32.74 32.49 32.44
36.47 35.83 35.11 34.27 33.75 33.43 33.33 33.22 33.00 32.73 32.50 32.48 32.26 32.17 32.24 32.46 32.68 32.86 32.97 32.60 32.47 32.48 32.54 32.83 32.82 32.63 32.37 32.13 31.79 31.47 31.18 30.89 30.55 30.46 30.42 30.35 30.07 29.67 29.45 29.60 30.54 30.91 30.98 30.91 30.97 31.01 31.09 31.17 31.20 31.11 31.01 30.85 30.94 31.15 31.28 31.35 31.49 31.72 31.98 32.14 32.42 32.85 33.14 33.19 33.22 33.32 33.27 32.92 32.60
35.73 35.05 34.14 33.46 33.02 32.86 32.70 32.68 32.39 32.16 31.98 31.95 31.95 32.12 32.22 32.30 32.35 32.47 32.49 32.05 32.13 32.05 32.06 32.27 32.13 31.98 31.70 31.47 31.02 30.82 30.87 30.91 30.45 30.23 30.06 30.13 30.12 29.84 29.64 29.70 30.58 30.98 31.10 31.07 31.07 31.11 31.16 31.26 31.42 31.36 31.24 30.79 31.05 31.22 31.45 31.62 31.73 31.99 32.22 32.51 32.89 33.29 33.68 33.76 33.61 33.75 33.65 33.36 32.94
34.95 34.16 33.50 32.87 32.70 32.45 32.23 32.13 31.87 31.66 31.62 31.62 31.72 31.86 31.99 32.06 31.98 32.08 32.22 32.09 32.25 32.12 31.94 31.76 31.51 31.38 31.13 30.73 30.39 30.43 30.52 30.82 30.67 30.38 30.15 30.13 30.39 30.12 29.79 29.80 30.34 30.85 31.20 31.19 31.18 31.14 31.33 31.51 31.65 31.76 31.62 31.25 31.49 31.79 32.00 32.10 32.23 32.47 32.73 33.02 33.34 33.75 34.10 34.22 34.12 33.99 33.99 33.93 33.70
34.24 33.67 33.12 32.61 32.35 32.05 31.84 31.51 31.48 31.54 31.54 31.52 31.40 31.51 31.57 31.61 31.57 31.81 32.11 32.31 32.49 32.39 32.00 31.60 31.34 30.92 30.56 29.97 29.92 29.76 29.62 30.08 30.39 30.45 30.39 30.31 30.55 30.38 30.10 29.92 30.43 31.02 31.37 31.41 31.44 31.57 31.67 31.82 32.08 32.19 32.17 31.93 32.36 32.63 32.79 32.93 32.91 32.87 33.08 33.30 33.47 33.76 34.13 34.48 34.63 34.50 34.41 34.51 34.35
33.74 33.21 32.70 32.33 32.10 31.81 31.44 31.12 31.23 31.35 31.49 31.42 31.33 31.31 31.27 31.30 31.44 31.84 32.11 32.28 32.39 32.21 31.81 31.26 30.83 30.44 30.15 29.65 29.41 28.97 28.75 28.99 29.64 30.19 30.60 30.58 30.75 30.75 30.68 30.60 30.82 31.31 31.69 31.89 31.87 31.95 32.00 32.27 32.42 32.57 32.75 32.50 33.11 33.44 33.46 33.23 32.82 32.73 32.73 32.95 33.19 33.31 33.51 33.92 34.17 34.27 34.38 34.53 34.61
MSLP
1017.53 1017.53 1017.61 1017.65 1017.69 1017.69 1017.69 1017.81 1017.97 1018.01 1017.97 1017.93 1017.89 1017.85 1017.81 1017.81 1017.73 1017.69 1017.65 1017.61 1017.57 1017.53 1017.49 1017.45 1017.41 1017.41 1017.41 1017.41 1017.41 1017.37 1017.33 1017.29 1017.25 1017.21 1017.21 1017.13 1017.05 1017.01 1016.97 1016.93 1016.85 1016.81 1016.73 1016.65 1016.57 1016.53 1016.41 1016.33 1016.25 1016.09 1015.93 1015.81 1015.73 1015.57 1015.49 1015.41 1015.33 1015.17 1014.97 1014.81 1014.61 1014.45 1014.29 1014.13 1014.01 1013.89 1013.81 1013.73 1013.69
1017.37 1017.45 1017.57 1017.69 1017.73 1017.69 1017.69 1017.73 1017.81 1017.89 1017.89 1017.85 1017.85 1017.85 1017.81 1017.77 1017.73 1017.69 1017.65 1017.57 1017.53 1017.53 1017.49 1017.41 1017.41 1017.41 1017.41 1017.37 1017.37 1017.37 1017.29 1017.25 1017.17 1017.13 1017.09 1017.01 1016.97 1016.97 1016.89 1016.81 1016.73 1016.69 1016.65 1016.57 1016.49 1016.37 1016.29 1016.17 1016.09 1015.93 1015.73 1015.61 1015.49 1015.33 1015.25 1015.17 1015.09 1014.97 1014.81 1014.61 1014.49 1014.37 1014.21 1014.01 1013.85 1013.73 1013.69 1013.53 1013.45
1017.25 1017.37 1017.49 1017.53 1017.53 1017.53 1017.53 1017.53 1017.57 1017.61 1017.65 1017.69 1017.81 1017.81 1017.81 1017.77 1017.77 1017.69 1017.69 1017.57 1017.53 1017.53 1017.49 1017.37 1017.41 1017.45 1017.45 1017.37 1017.37 1017.37 1017.29 1017.17 1017.09 1017.01 1016.97 1016.85 1016.81 1016.77 1016.69 1016.65 1016.61 1016.53 1016.49 1016.45 1016.37 1016.29 1016.21 1016.09 1015.97 1015.81 1015.65 1015.45 1015.25 1015.09 1014.97 1014.81 1014.81 1014.65 1014.49 1014.33 1014.29 1014.21 1014.01 1013.81 1013.69 1013.61 1013.53 1013.37 1013.25
1017.29 1017.37 1017.41 1017.41 1017.41 1017.45 1017.49 1017.53 1017.57 1017.61 1017.65 1017.69 1017.77 1017.81 1017.81 1017.77 1017.77 1017.69 1017.69 1017.57 1017.57 1017.53 1017.37 1017.33 1017.37 1017.49 1017.49 1017.41 1017.37 1017.25 1017.17 1017.09 1017.01 1016.89 1016.81 1016.73 1016.65 1016.61 1016.57 1016.53 1016.45 1016.37 1016.29 1016.29 1016.25 1016.17 1016.09 1016.01 1015.85 1015.69 1015.45 1015.25 1015.05 1014.89 1014.73 1014.61 1014.53 1014.37 1014.25 1014.09 1014.01 1013.89 1013.73 1013.57 1013.49 1013.41 1013.33 1013.13 1013.01
1017.25 1017.37 1017.49 1017.53 1017.53 1017.53 1017.61 1017.65 1017.65 1017.69 1017.69 1017.77 1017.77 1017.73 1017.69 1017.69 1017.69 1017.65 1017.57 1017.53 1017.49 1017.37 1017.33 1017.33 1017.37 1017.45 1017.45 1017.37 1017.25 1017.09 1017.01 1016.93 1016.89 1016.81 1016.65 1016.57 1016.53 1016.53 1016.49 1016.37 1016.29 1016.21 1016.13 1016.09 1016.05 1016.01 1015.97 1015.85 1015.69 1015.49 1015.25 1015.09 1014.89 1014.69 1014.53 1014.41 1014.33 1014.17 1014.01 1013.89 1013.81 1013.69 1013.53 1013.37 1013.25 1013.13 1013.05 1012.93 1012.81
1017.25 1017.45 1017.53 1017.61 1017.65 1017.65 1017.65 1017.69 1017.69 1017.73 1017.77 1017.81 1017.81 1017.69 1017.65 1017.57 1017.53 1017.49 1017.45 1017.37 1017.33 1017.25 1017.29 1017.33 1017.37 1017.37 1017.33 1017.21 1017.09 1016.97 1016.85 1016.81 1016.77 1016.65 1016.61 1016.53 1016.49 1016.41 1016.33 1016.25 1016.21 1016.13 1016.05 1015.97 1015.93 1015.85 1015.81 1015.73 1015.53 1015.29 1015.09 1014.89 1014.69 1014.53 1014.37 1014.29 1014.13 1013.97 1013.81 1013.69 1013.53 1013.41 1013.29 1013.09 1012.97 1012.89 1012.81 1012.65 1012.53
1017.25 1017.37 1017.49 1017.57 1017.65 1017.65 1017.69 1017.69 1017.77 1017.77 1017.77 1017.77 1017.69 1017.65 1017.57 1017.53 1017.53 1017.49 1017.41 1017.37 1017.33 1017.25 1017.25 1017.29 1017.29 1017.25 1017.13 1017.05 1016.93 1016.85 1016.77 1016.69 1016.65 1016.61 1016.57 1016.49 1016.37 1016.33 1016.25 1016.13 1016.09 1016.01 1015.93 1015.81 1015.77 1015.69 1015.57 1015.53 1015.33 1015.09 1014.81 1014.69 1014.49 1014.29 1014.17 1014.13 1013.97 1013.81 1013.61 1013.45 1013.29 1013.25 1013.09 1012.93 1012.81 1012.69 1012.57 1012.37 1012.25
1017.25 1017.33 1017.41 1017.49 1017.53 1017.61 1017.65 1017.69 1017.73 1017.73 1017.69 1017.65 1017.61 1017.57 1017.53 1017.53 1017.49 1017.45 1017.37 1017.33 1017.25 1017.17 1017.13 1017.17 1017.09 1017.05 1016.97 1016.93 1016.85 1016.77 1016.73 1016.65 1016.65 1016.57 1016.49 1016.41 1016.29 1016.21 1016.13 1016.09 1015.97 1015.89 1015.81 1015.77 1015.65 1015.53 1015.37 1015.29 1015.09 1014.85 1014.65 1014.49 1014.25 1014.01 1013.89 1013.89 1013.77 1013.61 1013.41 1013.29 1013.13 1013.01 1012.89 1012.81 1012.69 1012.53 1012.37 1012.25 1012.09
1017.25 1017.37 1017.41 1017.45 1017.53 1017.53 1017.61 1017.65 1017.69 1017.69 1017.65 1017.57 1017.53 1017.53 1017.49 1017.45 1017.41 1017.37 1017.33 1017.25 1017.13 1017.09 1017.05 1017.01 1016.97 1016.89 1016.81 1016.77 1016.69 1016.65 1016.65 1016.61 1016.53 1016.45 1016.37 1016.37 1016.25 1016.09 1016.01 1015.93 1015.81 1015.69 1015.61 1015.53 1015.37 1015.25 1015.09 1014.97 1014.77 1014.53 1014.37 1014.21 1013.97 1013.77 1013.69 1013.65 1013.57 1013.45 1013.29 1013.13 1012.97 1012.81 1012.69 1012.65 1012.53 1012.37 1012.21 1012.09 1011.97
1017.25 1017.33 1017.37 1017.41 1017.53 1017.57 1017.65 1017.69 1017.69 1017.69 1017.61 1017.53 1017.49 1017.45 1017.37 1017.37 1017.33 1017.25 1017.17 1017.09 1017.05 1017.01 1016.97 1016.85 1016.81 1016.77 1016.69 1016.65 1016.61 1016.57 1016.53 1016.53 1016.41 1016.37 1016.29 1016.21 1016.09 1016.01 1015.89 1015.77 1015.65 1015.49 1015.33 1015.21 1015.09 1014.97 1014.81 1014.65 1014.45 1014.25 1014.09 1013.97 1013.77 1013.61 1013.49 1013.45 1013.37 1013.25 1013.09 1012.97 1012.81 1012.65 1012.53 1012.41 1012.33 1012.13 1011.97 1011.85 1011.69
1017.29 1017.37 1017.45 1017.45 1017.53 1017.61 1017.65 1017.65 1017.61 1017.57 1017.49 1017.41 1017.37 1017.29 1017.25 1017.21 1017.13 1017.09 1017.01 1016.97 1016.93 1016.81 1016.73 1016.69 1016.65 1016.61 1016.57 1016.53 1016.53 1016.49 1016.45 1016.37 1016.25 1016.17 1016.09 1015.97 1015.89 1015.77 1015.65 1015.49 1015.37 1015.21 1015.09 1014.93 1014.81 1014.69 1014.53 1014.33 1014.13 1013.97 1013.81 1013.65 1013.49 1013.37 1013.25 1013.13 1013.09 1012.97 1012.85 1012.69 1012.61 1012.45 1012.33 1012.17 1012.09 1011.97 1011.77 1011.61 1011.49
1017.37 1017.45 1017.49 1017.53 1017.53 1017.57 1017.61 1017.53 1017.53 1017.41 1017.33 1017.25 1017.17 1017.09 1017.01 1016.93 1016.89 1016.85 1016.81 1016.81 1016.73 1016.65 1016.53 1016.53 1016.53 1016.49 1016.45 1016.37 1016.37 1016.29 1016.25 1016.13 1016.09 1015.97 1015.85 1015.69 1015.61 1015.49 1015.33 1015.17 1015.05 1014.89 1014.77 1014.65 1014.53 1014.41 1014.25 1014.09 1013.89 1013.69 1013.53 1013.37 1013.25 1013.09 1012.97 1012.81 1012.73 1012.65 1012.53 1012.37 1012.29 1012.17 1012.05 1011.89 1011.81 1011.69 1011.53 1011.41 1011.25
1017.41 1017.45 1017.45 1017.49 1017.53 1017.53 1017.53 1017.41 1017.33 1017.25 1017.13 1017.05 1016.97 1016.93 1016.85 1016.77 1016.73 1016.69 1016.69 1016.65 1016.53 1016.45 1016.41 1016.37 1016.37 1016.37 1016.29 1016.21 1016.13 1016.09 1016.01 1015.93 1015.81 1015.69 1015.57 1015.41 1015.29 1015.17 1015.01 1014.89 1014.73 1014.61 1014.49 1014.37 1014.29 1014.17 1013.97 1013.81 1013.61 1013.45 1013.25 1013.09 1012.97 1012.81 1012.69 1012.57 1012.41 1012.29 1012.13 1012.01 1011.89 1011.77 1011.61 1011.53 1011.45 1011.37 1011.25 1011.17 1011.05
1017.37 1017.41 1017.41 1017.41 1017.41 1017.41 1017.33 1017.25 1017.13 1017.05 1016.97 1016.85 1016.81 1016.81 1016.73 1016.69 1016.65 1016.65 1016.61 1016.53 1016.45 1016.37 1016.33 1016.29 1016.25 1016.21 1016.09 1016.01 1015.97 1015.89 1015.81 1015.73 1015.61 1015.49 1015.33 1015.17 1015.05 1014.93 1014.73 1014.57 1014.45 1014.33 1014.21 1014.09 1013.97 1013.89 1013.73 1013.53 1013.33 1013.13 1012.97 1012.81 1012.65 1012.53 1012.41 1012.33 1012.17 1012.01 1011.85 1011.69 1011.53 1011.37 1011.25 1011.13 1011.09 1011.01 1010.97 1010.89 1010.77
1017.29 1017.29 1017.33 1017.33 1017.25 1017.21 1017.09 1017.01 1016.93 1016.85 1016.81 1016.73 1016.69 1016.69 1016.65 1016.65 1016.57 1016.53 1016.49 1016.41 1016.37 1016.33 1016.25 1016.17 1016.09 1016.05 1016.01 1015.97 1015.89 1015.81 1015.69 1015.57 1015.37 1015.25 1015.09 1014.93 1014.77 1014.61 1014.45 1014.29 1014.13 1014.01 1013.89 1013.77 1013.65 1013.53 1013.41 1013.25 1013.09 1012.89 1012.73 1012.53 1012.37 1012.25 1012.13 1012.05 1011.93 1011.77 1011.65 1011.45 1011.25 1011.09 1010.97 1010.81 1010.77 1010.69 1010.61 1010.53 1010.41
1017.13 1017.13 1017.13 1017.09 1017.05 1016.97 1016.93 1016.85 1016.81 1016.77 1016.73 1016.65 1016.65 1016.65 1016.61 1016.53 1016.49 1016.41 1016.41 1016.37 1016.29 1016.21 1016.13 1016.09 1016.01 1015.93 1015.89 1015.85 1015.77 1015.65 1015.53 1015.33 1015.17 1015.01 1014.81 1014.65 1014.45 1014.29 1014.13 1013.97 1013.85 1013.73 1013.61 1013.49 1013.37 1013.25 1013.13 1013.01 1012.85 1012.73 1012.53 1012.37 1012.17 1011.97 1011.85 1011.77 1011.65 1011.53 1011.37 1011.21 1011.05 1010.89 1010.73 1010.65 1010.53 1010.45 1010.33 1010.21 1010.09
1016.97 1016.97 1016.93 1016.89 1016.85 1016.81 1016.81 1016.77 1016.73 1016.65 1016.65 1016.57 1016.57 1016.57 1016.53 1016.45 1016.37 1016.37 1016.33 1016.29 1016.21 1016.09 1016.05 1015.97 1015.93 1015.81 1015.73 1015.61 1015.53 1015.41 1015.29 1015.09 1014.97 1014.81 1014.57 1014.37 1014.21 1014.01 1013.85 1013.73 1013.61 1013.49 1013.37 1013.25 1013.09 1012.97 1012.81 1012.69 1012.61 1012.49 1012.37 1012.21 1012.01 1011.81 1011.65 1011.53 1011.37 1011.25 1011.09 1010.97 1010.85 1010.73 1010.57 1010.45 1010.37 1010.25 1010.09 1009.97 1009.81
1016.77 1016.77 1016.77 1016.73 1016.69 1016.69 1016.65 1016.65 1016.65 1016.57 1016.53 1016.53 1016.49 1016.45 1016.41 1016.37 1016.29 1016.25 1016.21 1016.17 1016.13 1016.05 1015.93 1015.85 1015.81 1015.69 1015.57 1015.41 1015.33 1015.21 1015.09 1014.93 1014.73 1014.53 1014.37 1014.21 1014.01 1013.85 1013.69 1013.53 1013.37 1013.29 1013.17 1013.01 1012.89 1012.73 1012.53 1012.41 1012.33 1012.25 1012.09 1011.97 1011.81 1011.61 1011.45 1011.33 1011.17 1011.01 1010.89 1010.77 1010.65 1010.53 1010.37 1010.25 1010.17 1010.05 1009.93 1009.73 1009.57
1016.61 1016.61 1016.61 1016.57 1016.57 1016.57 1016.57 1016.57 1016.53 1016.53 1016.45 1016.45 1016.37 1016.33 1016.25 1016.25 1016.21 1016.13 1016.09 1016.01 1015.97 1015.97 1015.85 1015.73 1015.61 1015.53 1015.37 1015.25 1015.09 1015.01 1014.85 1014.69 1014.53 1014.33 1014.17 1014.01 1013.85 1013.69 1013.53 1013.37 1013.21 1013.09 1012.97 1012.81 1012.65 1012.53 1012.37 1012.25 1012.13 1012.01 1011.89 1011.73 1011.57 1011.37 1011.25 1011.09 1010.97 1010.81 1010.65 1010.53 1010.41 1010.29 1010.17 1010.09 1009.97 1009.81 1009.69 1009.53 1009.37
1016.45 1016.45 1016.45 1016.49 1016.49 1016.49 1016.49 1016.45 1016.45 1016.41 1016.37 1016.33 1016.25 1016.17 1016.09 1016.09 1016.09 1016.01 1015.93 1015.85 1015.81 1015.81 1015.69 1015.53 1015.41 1015.25 1015.13 1015.05 1014.93 1014.77 1014.65 1014.49 1014.33 1014.13 1013.97 1013.81 1013.65 1013.49 1013.33 1013.17 1013.05 1012.89 1012.73 1012.61 1012.45 1012.33 1012.17 1012.01 1011.93 1011.81 1011.69 1011.53 1011.37 1011.21 1011.09 1010.97 1010.81 1010.69 1010.57 1010.45 1010.33 1010.17 1010.05 1009.97 1009.81 1009.69 1009.53 1009.37 1009.21
1016.37 1016.37 1016.37 1016.41 1016.41 1016.41 1016.41 1016.37 1016.37 1016.29 1016.25 1016.17 1016.09 1016.01 1015.97 1015.93 1015.89 1015.81 1015.77 1015.73 1015.69 1015.61 1015.53 1015.37 1015.25 1015.09 1014.93 1014.81 1014.65 1014.53 1014.37 1014.25 1014.09 1013.93 1013.77 1013.61 1013.45 1013.29 1013.17 1013.01 1012.85 1012.65 1012.53 1012.37 1012.25 1012.13 1012.05 1011.93 1011.81 1011.69 1011.61 1011.53 1011.37 1011.25 1011.13 1011.05 1010.89 1010.77 1010.65 1010.53 1010.37 1010.25 1010.09 1010.01 1009.85 1009.69 1009.53 1009.33 1009.13
1016.25 1016.33 1016.37 1016.37 1016.37 1016.37 1016.37 1016.29 1016.25 1016.21 1016.09 1016.01 1015.93 1015.85 1015.81 1015.69 1015.69 1015.65 1015.61 1015.57 1015.53 1015.41 1015.29 1015.13 1015.01 1014.85 1014.69 1014.57 1014.41 1014.25 1014.13 1014.01 1013.89 1013.77 1013.61 1013.41 1013.25 1013.09 1012.97 1012.81 1012.61 1012.45 1012.33 1012.21 1012.13 1012.09 1012.01 1011.93 1011.81 1011.73 1011.65 1011.53 1011.37 1011.25 1011.17 1011.05 1010.93 1010.77 1010.61 1010.49 1010.37 1010.25 1010.09 1010.01 1009.89 1009.69 1009.53 1009.33 1009.13
1016.25 1016.29 1016.29 1016.29 1016.29 1016.29 1016.25 1016.21 1016.13 1016.05 1015.97 1015.85 1015.77 1015.69 1015.65 1015.53 1015.53 1015.49 1015.45 1015.37 1015.29 1015.21 1015.09 1014.97 1014.81 1014.65 1014.53 1014.41 1014.29 1014.13 1013.97 1013.81 1013.69 1013.53 1013.37 1013.21 1013.01 1012.81 1012.69 1012.57 1012.45 1012.33 1012.21 1012.09 1012.09 1012.01 1011.97 1011.85 1011.77 1011.69 1011.61 1011.49 1011.33 1011.17 1011.05 1010.97 1010.81 1010.61 1010.45 1010.25 1010.13 1010.01 1009.93 1009.81 1009.69 1009.57 1009.41 1009.25 1009.13
1016.25 1016.25 1016.25 1016.25 1016.21 1016.17 1016.09 1016.05 1015.97 1015.85 1015.77 1015.69 1015.57 1015.53 1015.45 1015.37 1015.37 1015.29 1015.25 1015.21 1015.09 1015.01 1014.93 1014.81 1014.65 1014.49 1014.33 1014.25 1014.09 1013.97 1013.81 1013.57 1013.37 1013.17 1013.01 1012.85 1012.69 1012.53 1012.37 1012.33 1012.25 1012.17 1012.09 1011.97 1011.97 1011.97 1011.89 1011.81 1011.69 1011.57 1011.49 1011.37 1011.21 1011.05 1010.89 1010.81 1010.61 1010.45 1010.25 1010.05 1009.89 1009.73 1009.57 1009.49 1009.37 1009.29 1009.17 1009.05 1008.97
1016.17 1016.17 1016.17 1016.13 1016.09 1016.05 1015.97 1015.89 1015.77 1015.69 1015.57 1015.49 1015.45 1015.37 1015.25 1015.21 1015.13 1015.09 1015.05 1014.97 1014.89 1014.77 1014.65 1014.53 1014.37 1014.25 1014.13 1013.97 1013.81 1013.69 1013.49 1013.29 1013.09 1012.85 1012.65 1012.49 1012.41 1012.29 1012.21 1012.13 1012.09 1011.97 1011.89 1011.81 1011.81 1011.81 1011.81 1011.81 1011.69 1011.53 1011.37 1011.21 1011.05 1010.89 1010.69 1010.53 1010.37 1010.25 1010.05 1009.81 1009.65 1009.49 1009.29 1009.09 1009.01 1008.93 1008.81 1008.73 1008.65
1016.09 1016.05 1016.05 1016.01 1015.97 1015.89 1015.81 1015.73 1015.65 1015.53 1015.45 1015.37 1015.29 1015.21 1015.09 1015.05 1014.97 1014.89 1014.81 1014.69 1014.61 1014.49 1014.37 1014.25 1014.13 1014.01 1013.89 1013.69 1013.49 1013.29 1013.09 1012.97 1012.77 1012.57 1012.37 1012.25 1012.09 1012.01 1011.97 1011.93 1011.81 1011.77 1011.69 1011.65 1011.65 1011.65 1011.65 1011.65 1011.53 1011.45 1011.33 1011.09 1010.89 1010.69 1010.49 1010.25 1010.13 1009.97 1009.81 1009.61 1009.41 1009.21 1008.97 1008.81 1008.61 1008.53 1008.49 1008.41 1008.37
1015.97 1015.97 1015.93 1015.93 1015.85 1015.81 1015.69 1015.65 1015.53 1015.45 1015.37 1015.25 1015.17 1015.09 1014.97 1014.93 1014.81 1014.73 1014.61 1014.49 1014.33 1014.21 1014.09 1013.97 1013.85 1013.69 1013.53 1013.33 1013.09 1012.93 1012.77 1012.61 1012.49 1012.33 1012.17 1012.01 1011.85 1011.77 1011.69 1011.65 1011.57 1011.53 1011.45 1011.41 1011.41 1011.37 1011.37 1011.29 1011.25 1011.17 1011.09 1010.93 1010.69 1010.45 1010.25 1009.97 1009.81 1009.65 1009.49 1009.25 1009.09 1008.85 1008.65 1008.41 1008.25 1008.13 1008.09 1008.01 1007.97
1015.85 1015.85 1015.85 1015.81 1015.73 1015.69 1015.61 1015.53 1015.45 1015.33 1015.21 1015.09 1015.05 1014.97 1014.89 1014.81 1014.69 1014.57 1014.41 1014.25 1014.09 1013.97 1013.81 1013.69 1013.53 1013.37 1013.13 1012.93 1012.73 1012.57 1012.49 1012.37 1012.25 1012.05 1011.89 1011.77 1011.61 1011.49 1011.41 1011.41 1011.33 1011.25 1011.21 1011.13 1011.09 1011.05 1010.97 1010.97 1010.85 1010.81 1010.69 1010.61 1010.41 1010.21 1009.97 1009.73 1009.53 1009.29 1009.09 1008.89 1008.65 1008.41 1008.25 1008.09 1007.89 1007.73 1007.61 1007.53 1007.49
1015.81 1015.81 1015.77 1015.69 1015.65 1015.57 1015.53 1015.41 1015.33 1015.25 1015.13 1015.05 1014.97 1014.93 1014.81 1014.69 1014.53 1014.37 1014.25 1014.05 1013.89 1013.69 1013.49 1013.29 1013.17 1013.01 1012.81 1012.61 1012.45 1012.33 1012.21 1012.05 1011.93 1011.77 1011.61 1011.41 1011.33 1011.25 1011.25 1011.17 1011.09 1011.01 1010.93 1010.85 1010.81 1010.73 1010.65 1010.53 1010.45 1010.37 1010.29 1010.25 1010.09 1009.93 1009.69 1009.41 1009.25 1008.97 1008.77 1008.53 1008.25 1008.05 1007.85 1007.69 1007.53 1007.37 1007.21 1007.09 1007.01
1015.73 1015.69 1015.69 1015.61 1015.57 1015.53 1015.41 1015.33 1015.25 1015.21 1015.13 1015.05 1014.97 1014.85 1014.69 1014.53 1014.37 1014.17 1013.97 1013.81 1013.61 1013.41 1013.25 1013.09 1012.93 1012.77 1012.57 1012.41 1012.25 1012.09 1011.93 1011.73 1011.57 1011.49 1011.37 1011.21 1011.09 1011.09 1011.09 1010.97 1010.85 1010.73 1010.61 1010.57 1010.53 1010.41 1010.29 1010.17 1010.09 1009.97 1009.89 1009.85 1009.77 1009.57 1009.37 1009.13 1008.93 1008.65 1008.37 1008.13 1007.89 1007.69 1007.53 1007.37 1007.17 1007.01 1006.85 1006.69 1006.57
1015.65 1015.65 1015.61 1015.53 1015.49 1015.41 1015.33 1015.25 1015.25 1015.17 1015.09 1014.97 1014.85 1014.73 1014.53 1014.37 1014.17 1013.97 1013.73 1013.53 1013.33 1013.17 1013.01 1012.89 1012.73 1012.53 1012.37 1012.21 1012.01 1011.81 1011.61 1011.41 1011.29 1011.21 1011.13 1011.09 1011.05 1010.97 1010.85 1010.77 1010.61 1010.49 1010.33 1010.25 1010.17 1010.09 1009.97 1009.85 1009.73 1009.61 1009.53 1009.41 1009.37 1009.25 1009.01 1008.81 1008.53 1008.29 1008.01 1007.73 1007.53 1007.33 1007.17 1006.97 1006.81 1006.65 1006.49 1006.37 1006.25
1015.57 1015.57 1015.53 1015.49 1015.41 1015.37 1015.29 1015.25 1015.17 1015.09 1015.05 1014.89 1014.77 1014.57 1014.37 1014.21 1013.97 1013.69 1013.53 1013.33 1013.17 1012.97 1012.77 1012.57 1012.45 1012.25 1012.09 1011.89 1011.69 1011.53 1011.37 1011.25 1011.17 1011.09 1011.05 1011.01 1010.97 1010.81 1010.65 1010.53 1010.37 1010.21 1010.05 1009.97 1009.85 1009.77 1009.65 1009.53 1009.37 1009.25 1009.13 1009.05 1008.97 1008.85 1008.65 1008.41 1008.17 1007.89 1007.61 1007.37 1007.09 1006.89 1006.73 1006.61 1006.41 1006.25 1006.09 1005.97 1005.89
1015.53 1015.53 1015.49 1015.41 1015.37 1015.29 1015.25 1015.21 1015.13 1015.05 1014.93 1014.81 1014.61 1014.41 1014.21 1013.97 1013.77 1013.53 1013.37 1013.25 1013.01 1012.81 1012.57 1012.37 1012.21 1012.01 1011.81 1011.65 1011.53 1011.37 1011.21 1011.13 1011.05 1011.01 1010.97 1010.97 1010.81 1010.65 1010.49 1010.29 1010.09 1009.93 1009.81 1009.69 1009.57 1009.45 1009.29 1009.21 1009.01 1008.85 1008.73 1008.65 1008.53 1008.41 1008.21 1007.97 1007.69 1007.41 1007.13 1006.85 1006.61 1006.41 1006.29 1006.17 1006.01 1005.81 1005.69 1005.53 1005.45
1015.49 1015.45 1015.37 1015.37 1015.33 1015.25 1015.21 1015.09 1015.05 1014.97 1014.81 1014.61 1014.41 1014.25 1014.05 1013.85 1013.61 1013.37 1013.21 1013.01 1012.81 1012.61 1012.37 1012.25 1012.05 1011.85 1011.69 1011.53 1011.37 1011.25 1011.13 1011.05 1010.97 1010.97 1010.89 1010.77 1010.65 1010.49 1010.25 1010.05 1009.81 1009.69 1009.53 1009.45 1009.25 1009.09 1008.97 1008.81 1008.65 1008.53 1008.37 1008.25 1008.13 1007.97 1007.73 1007.45 1007.21 1006.93 1006.65 1006.33 1006.09 1005.93 1005.81 1005.65 1005.49 1005.37 1005.25 1005.09 1005.05
1015.33 1015.33 1015.33 1015.29 1015.25 1015.21 1015.09 1015.01 1014.93 1014.81 1014.65 1014.41 1014.25 1014.09 1013.89 1013.69 1013.41 1013.17 1012.97 1012.77 1012.61 1012.41 1012.25 1012.05 1011.85 1011.69 1011.53 1011.41 1011.33 1011.21 1011.09 1011.01 1010.93 1010.85 1010.77 1010.65 1010.53 1010.29 1010.05 1009.77 1009.53 1009.37 1009.25 1009.13 1008.97 1008.81 1008.65 1008.53 1008.37 1008.17 1008.01 1007.89 1007.73 1007.53 1007.25 1006.97 1006.65 1006.37 1006.05 1005.81 1005.57 1005.37 1005.21 1005.09 1004.97 1004.81 1004.69 1004.65 1004.53
1015.25 1015.29 1015.29 1015.29 1015.21 1015.09 1014.97 1014.85 1014.73 1014.57 1014.41 1014.25 1014.09 1013.93 1013.69 1013.45 1013.21 1012.97 1012.77 1012.61 1012.45 1012.25 1012.01 1011.81 1011.69 1011.53 1011.41 1011.29 1011.25 1011.13 1011.05 1010.97 1010.81 1010.65 1010.53 1010.45 1010.33 1010.09 1009.81 1009.53 1009.25 1009.01 1008.89 1008.77 1008.65 1008.49 1008.37 1008.21 1008.01 1007.85 1007.69 1007.53 1007.33 1007.05 1006.77 1006.45 1006.17 1005.81 1005.53 1005.29 1005.05 1004.81 1004.61 1004.49 1004.37 1004.25 1004.13 1004.09 1004.01
1015.25 1015.29 1015.29 1015.21 1015.09 1014.97 1014.85 1014.73 1014.57 1014.45 1014.25 1014.09 1013.93 1013.73 1013.53 1013.25 1013.01 1012.81 1012.61 1012.49 1012.29 1012.05 1011.81 1011.69 1011.53 1011.41 1011.37 1011.29 1011.21 1011.09 1010.97 1010.81 1010.65 1010.49 1010.33 1010.25 1010.09 1009.85 1009.57 1009.25 1008.97 1008.69 1008.53 1008.45 1008.33 1008.13 1007.97 1007.81 1007.65 1007.49 1007.33 1007.17 1006.89 1006.61 1006.29 1006.01 1005.69 1005.37 1005.05 1004.77 1004.49 1004.25 1004.05 1003.97 1003.81 1003.69 1003.53 1003.49 1003.45
1015.17 1015.21 1015.17 1015.09 1014.97 1014.85 1014.73 1014.61 1014.45 1014.33 1014.13 1013.93 1013.69 1013.49 1013.29 1013.09 1012.81 1012.65 1012.49 1012.37 1012.21 1011.97 1011.69 1011.53 1011.41 1011.37 1011.33 1011.25 1011.13 1010.97 1010.81 1010.65 1010.53 1010.33 1010.13 1009.97 1009.81 1009.69 1009.37 1009.05 1008.69 1008.45 1008.29 1008.13 1007.97 1007.81 1007.65 1007.45 1007.25 1007.09 1006.97 1006.81 1006.53 1006.21 1005.89 1005.53 1005.21 1004.85 1004.53 1004.21 1003.89 1003.69 1003.53 1003.37 1003.25 1003.09 1002.97 1002.89 1002.85
1015.13 1015.13 1015.09 1014.97 1014.89 1014.81 1014.65 1014.49 1014.33 1014.17 1013.97 1013.73 1013.53 1013.29 1013.09 1012.97 1012.73 1012.53 1012.41 1012.33 1012.13 1011.89 1011.69 1011.49 1011.37 1011.29 1011.25 1011.21 1011.01 1010.81 1010.57 1010.41 1010.29 1010.17 1009.97 1009.81 1009.61 1009.45 1009.25 1008.89 1008.53 1008.25 1008.01 1007.85 1007.69 1007.49 1007.29 1007.09 1006.93 1006.73 1006.57 1006.41 1006.21 1005.85 1005.53 1005.13 1004.77 1004.37 1004.05 1003.77 1003.49 1003.21 1003.01 1002.89 1002.77 1002.61 1002.45 1002.33 1002.29
1015.13 1015.13 1015.05 1014.93 1014.81 1014.69 1014.53 1014.33 1014.17 1014.01 1013.81 1013.65 1013.41 1013.17 1012.97 1012.81 1012.65 1012.53 1012.37 1012.21 1012.01 1011.81 1011.65 1011.45 1011.33 1011.25 1011.17 1011.09 1010.85 1010.61 1010.37 1010.17 1010.05 1009.97 1009.81 1009.57 1009.37 1009.21 1008.97 1008.69 1008.37 1008.01 1007.73 1007.53 1007.33 1007.13 1006.93 1006.73 1006.57 1006.37 1006.25 1006.09 1005.81 1005.53 1005.17 1004.77 1004.37 1004.01 1003.69 1003.41 1003.17 1002.93 1002.65 1002.49 1002.37 1002.21 1002.01 1001.85 1001.81
1015.09 1015.05 1014.97 1014.85 1014.73 1014.57 1014.41 1014.25 1014.05 1013.85 1013.69 1013.53 1013.33 1013.09 1012.93 1012.73 1012.57 1012.37 1012.21 1012.05 1011.85 1011.69 1011.57 1011.41 1011.29 1011.17 1011.09 1010.97 1010.73 1010.49 1010.25 1010.01 1009.81 1009.69 1009.53 1009.33 1009.09 1008.85 1008.61 1008.37 1008.05 1007.73 1007.41 1007.17 1006.97 1006.77 1006.57 1006.37 1006.25 1006.09 1005.93 1005.77 1005.53 1005.21 1004.89 1004.53 1004.17 1003.81 1003.49 1003.25 1002.97 1002.69 1002.45 1002.21 1002.01 1001.81 1001.69 1001.53 1001.37
Wind_Speed
5 4 3 2 2 2 1 2 2 1 1 1 2 2 3 3 4 4 4 4 4 4 4 4 4 5 5 7 8 8 9 9 10 10 11 12 12 12 13 13 13 13 13 14 14 13 12 12 11 10 9 9 10 10 10 10 11 12 13 14 13 14 16 17 17 18 19 19 16
5 5 4 3 2 2 2 2 2 2 2 1 2 2 3 3 4 4 4 5 4 4 5 5 5 5 7 8 9 9 10 11 11 12 12 13 13 14 14 13 14 14 14 15 14 13 12 13 12 11 9 9 10 11 11 11 11 13 14 16 14 14 14 15 16 17 18 19 17
5 4 4 3 3 2 1 1 1 1 2 2 2 2 3 3 4 4 4 5 5 5 5 5 5 6 7 9 9 10 11 11 12 13 13 13 14 14 15 14 15 15 15 14 14 13 13 13 12 11 10 10 11 12 12 12 13 14 15 16 14 13 12 13 15 16 16 15 16
4 3 2 2 1 0 0 1 2 2 3 2 3 3 3 4 3 4 4 5 6 6 6 6 5 6 7 8 10 11 12 13 14 14 14 14 15 15 16 16 16 16 16 15 15 15 15 14 12 11 11 12 14 13 12 12 13 14 13 13 13 13 13 13 14 14 14 14 15
3 3 2 1 1 1 1 1 2 2 2 2 3 3 4 4 4 4 5 5 6 6 7 8 6 6 7 9 12 13 14 14 14 14 14 14 15 16 16 16 17 16 16 15 15 15 15 15 12 11 11 12 12 12 12 14 14 14 13 11 12 12 12 13 13 13 13 13 14
3 3 2 1 1 1 0 0 1 2 2 3 4 5 5 4 5 5 6 6 7 8 9 9 8 8 9 11 13 13 14 14 13 14 14 15 15 15 16 17 17 16 15 15 16 16 15 15 12 11 11 11 11 12 14 15 15 14 13 12 12 12 12 13 13 12 13 15 16
2 2 2 2 1 1 0 1 2 3 3 4 5 6 7 6 7 8 8 8 8 9 9 8 8 9 10 12 12 13 13 13 13 14 15 15 15 16 16 16 16 16 16 16 16 16 15 14 12 11 10 10 10 12 14 15 14 14 14 13 12 11 12 14 13 12 14 18 20
1 1 2 2 1 1 2 2 3 4 4 4 6 7 8 8 9 9 10 10 9 9 8 8 10 11 12 12 13 13 13 14 14 14 14 15 16 16 16 16 16 16 16 16 16 16 15 13 11 11 11 10 10 11 13 15 15 15 15 15 13 12 12 12 12 13 15 19 21
2 2 2 2 2 2 2 3 4 5 5 6 7 8 9 9 9 10 10 10 9 9 10 9 11 13 14 14 13 13 13 13 14 14 14 14 15 16 16 15 16 16 16 16 16 17 16 13 12 11 11 11 11 12 13 15 16 17 16 15 14 14 14 13 14 15 17 18 20
3 3 3 3 2 2 3 4 5 6 7 7 8 9 9 9 9 10 10 9 9 10 11 11 12 13 13 14 13 13 13 12 13 13 14 14 15 15 16 15 15 16 16 15 15 16 16 14 13 13 13 12 14 15 16 16 17 18 17 14 14 16 17 17 17 18 19 18 20
3 3 3 3 3 3 4 5 5 6 7 7 8 9 9 9 10 10 10 9 10 11 12 12 12 12 13 12 12 12 12 12 12 13 13 14 15 15 16 16 16 16 17 16 15 14 14 13 14 15 16 15 16 16 17 18 18 19 18 16 17 18 19 20 19 19 19 19 20
4 4 4 4 4 4 4 5 6 6 7 8 9 9 10 10 11 11 11 11 12 12 12 12 12 12 12 11 11 12 12 12 13 13 14 15 16 16 17 17 17 17 17 17 15 14 13 13 15 17 18 19 16 15 16 18 19 19 20 19 20 20 20 21 20 19 18 18 20
4 4 4 4 4 5 5 6 6 6 7 8 9 9 10 10 11 11 12 12 12 12 11 11 12 12 11 11 11 11 12 12 13 14 15 15 16 17 17 17 18 18 17 17 15 14 14 15 17 18 19 19 17 16 17 19 19 20 20 21 21 21 21 22 21 20 20 20 20
5 5 5 5 5 5 6 6 6 7 8 9 9 10 10 10 10 11 11 11 12 11 11 11 11 11 11 12 12 13 13 14 15 15 16 16 16 17 17 17 17 17 17 15 15 16 17 17 18 19 20 20 19 19 19 20 20 20 21 21 22 22 22 22 22 21 21 22 21
5 5 5 5 5 6 6 7 7 7 8 9 9 9 9 9 10 10 10 11 11 11 11 11 10 11 11 12 13 14 15 15 16 16 17 17 17 17 17 17 18 17 17 16 16 16 17 19 19 19 20 20 21 21 21 20 20 20 21 21 22 22 22 22 22 22 22 22 22
6 6 5 6 6 6 7 7 6 7 8 9 9 9 9 9 9 9 10 11 11 10 10 11 11 11 12 12 13 14 15 15 16 16 17 17 17 18 18 18 18 18 18 18 17 17 17 18 18 19 20 20 21 21 21 21 21 21 21 22 22 22 22 23 22 22 22 22 22
6 6 6 6 6 7 7 7 7 7 8 9 10 10 10 9 9 9 10 11 10 11 11 12 12 12 12 13 13 13 14 14 15 15 16 17 17 18 18 18 18 18 18 18 18 18 18 18 18 18 19 20 20 21 21 21 21 21 22 22 22 22 22 22 22 22 23 23 23
6 6 6 6 7 7 8 8 9 9 10 10 10 10 10 10 10 10 10 11 11 12 13 14 13 13 13 14 13 13 13 14 15 15 16 17 17 18 18 18 18 18 18 18 19 19 19 20 19 19 19 19 20 20 20 21 21 21 21 22 22 22 22 23 23 22 22 23 23
6 6 6 7 7 8 9 9 10 10 10 11 11 10 11 11 11 11 11 11 12 13 14 14 14 14 14 15 15 14 13 14 15 16 17 17 17 18 18 18 18 18 18 19 19 19 19 20 19 19 19 19 19 19 20 20 20 20 21 21 22 22 22 22 22 22 22 23 23
6 6 7 7 8 9 9 10 10 10 11 11 11 11 11 11 12 12 12 12 12 13 14 14 14 15 15 15 16 15 14 14 15 16 17 17 17 18 18 18 19 19 19 19 19 19 19 19 19 19 19 19 20 20 20 20 20 20 20 19 20 20 21 21 22 22 22 23 23
6 6 7 8 8 9 9 10 10 11 11 11 12 12 12 12 12 12 12 12 13 13 14 14 15 15 16 16 16 16 15 14 15 16 17 17 17 18 18 18 18 18 18 18 18 18 19 19 19 19 19 19 19 19 19 19 19 19 19 18 19 19 20 21 21 21 22 22 22
6 7 7 8 9 9 10 10 10 11 11 12 12 12 12 12 12 12 12 12 13 14 14 15 15 16 16 16 17 16 16 14 15 16 16 16 17 17 17 17 17 17 18 17 17 18 18 18 18 18 18 17 18 18 18 18 18 18 19 19 20 20 20 21 21 21 22 22 22
6 7 8 8 9 9 10 10 11 11 11 12 12 12 12 12 12 12 12 13 13 13 14 14 15 15 16 16 16 17 16 16 16 16 17 17 17 17 17 16 16 17 17 16 16 16 16 16 16 16 16 16 16 17 17 17 17 17 18 19 19 20 20 20 20 20 21 21 21
7 7 8 8 9 10 10 11 11 11 12 12 12 12 12 12 12 12 13 13 13 14 14 13 13 14 16 16 16 16 17 17 17 17 17 17 17 17 16 15 15 15 15 13 13 14 14 13 13 13 14 14 15 15 16 16 16 17 18 18 19 19 19 19 20 20 20 21 20
7 8 8 8 9 10 11 11 11 12 12 12 12 12 12 13 13 13 13 13 14 14 15 15 14 14 14 15 15 16 16 17 17 17 17 17 17 16 15 14 13 13 12 12 15 17 17 16 14 13 13 14 14 15 15 16 17 18 18 18 19 19 19 20 20 20 20 21 20
8 8 9 9 10 11 11 11 12 12 12 12 12 13 13 13 13 13 14 14 14 15 15 15 14 14 13 14 14 15 15 15 15 16 17 17 17 17 15 13 12 11 11 13 16 18 19 20 19 18 16 15 15 15 15 16 17 18 19 19 19 20 20 20 20 20 20 20 20
8 9 9 10 10 11 11 12 12 12 12 12 13 13 13 13 13 13 14 15 15 15 14 14 13 13 13 13 14 15 15 14 15 16 17 17 17 17 16 14 12 11 11 14 18 19 21 21 22 22 20 17 16 15 15 15 16 18 18 19 19 20 21 21 21 21 20 19 20
8 9 10 10 11 11 12 12 12 13 13 13 13 13 14 14 14 15 15 15 15 15 13 12 12 11 11 11 13 14 15 16 16 16 16 16 17 17 16 14 13 13 14 18 20 21 22 23 23 24 23 20 17 16 16 16 17 17 17 17 18 19 20 20 19 19 19 20 19
9 9 10 11 11 12 12 12 13 13 13 13 13 14 14 14 15 15 15 15 15 14 13 11 10 10 10 12 13 15 16 17 16 15 15 16 16 16 16 15 15 16 18 21 22 23 23 24 24 24 24 23 17 14 13 14 14 14 15 15 15 16 17 17 17 17 18 18 18
9 9 10 11 11 12 12 12 13 13 13 13 13 14 14 14 15 15 15 15 15 15 13 12 12 12 13 14 15 15 15 15 15 15 15 16 16 16 16 16 16 17 18 21 23 23 24 24 25 25 25 24 20 17 14 13 14 14 14 14 16 17 18 18 19 19 19 18 18
9 9 10 11 12 12 12 13 13 13 13 13 13 14 14 15 15 15 15 15 15 15 14 15 15 16 16 16 16 16 16 16 15 15 15 16 16 17 18 18 19 19 19 22 23 24 24 25 25 25 25 25 21 17 14 14 15 15 15 15 17 19 19 19 20 20 21 21 20
9 9 10 11 12 12 13 13 13 13 13 14 14 14 15 15 15 16 15 15 15 15 16 16 16 16 17 17 16 16 17 16 16 16 16 16 17 18 18 19 19 19 20 22 23 24 24 25 25 25 25 25 21 18 16 16 17 17 17 19 21 22 21 19 19 20 22 22 21
9 10 10 11 12 12 13 13 13 13 13 14 14 14 15 15 15 16 15 15 15 15 16 16 16 16 16 17 17 17 17 16 16 16 17 17 18 18 19 18 17 18 19 22 23 24 24 25 25 26 26 26 22 19 17 17 16 16 16 18 20 21 22 22 21 21 22 22 22
8 10 10 11 12 12 13 13 13 13 13 14 14 15 15 15 16 16 15 14 14 14 14 15 15 15 15 15 16 16 16 15 16 17 17 18 18 19 19 18 15 16 19 22 24 25 25 26 26 27 27 26 21 18 17 18 17 16 17 18 19 20 21 22 22 22 23 23 21
9 10 10 11 12 12 13 13 13 13 13 14 14 15 15 16 16 16 15 14 14 14 14 15 15 15 15 15 15 16 16 16 17 17 17 18 18 19 19 19 18 19 22 24 25 25 26 26 26 27 27 24 18 16 16 17 17 18 19 20 20 21 21 22 21 21 22 22 22
9 9 10 11 12 13 13 13 13 14 14 14 14 15 15 16 16 15 15 15 15 15 15 15 15 15 15 15 15 15 16 17 17 17 17 17 18 19 20 20 20 21 23 24 25 25 26 26 27 27 26 22 16 14 14 15 15 16 18 20 20 21 21 21 21 20 20 20 21
9 9 10 11 12 13 13 13 13 14 14 14 15 15 15 16 16 15 14 14 14 15 15 15 15 15 15 15 15 16 16 17 18 18 18 17 18 19 19 20 21 22 22 24 25 25 26 26 27 27 25 20 16 14 14 14 13 14 16 18 19 20 20 19 19 19 19 20 20
9 10 10 11 12 12 13 13 13 14 14 15 15 15 15 15 15 14 14 13 14 15 15 15 15 15 15 16 16 17 18 18 18 18 18 18 18 18 19 20 21 21 21 23 24 26 26 27 27 27 24 19 17 15 14 13 13 14 15 16 16 17 17 16 15 15 17 19 20
10 10 11 11 12 12 13 13 14 14 14 15 15 15 15 15 14 13 13 13 13 14 15 15 15 15 15 16 16 17 18 18 18 18 18 18 18 18 19 20 20 20 21 23 25 26 27 27 27 27 25 20 17 14 13 12 13 14 15 14 14 15 15 14 13 13 14 17 21
10 10 11 11 12 12 13 14 14 14 14 14 15 15 15 15 14 13 13 13 13 13 14 14 15 16 16 16 16 17 18 18 18 18 18 18 18 19 20 20 20 20 21 23 25 26 26 26 27 27 25 20 16 13 12 11 12 13 14 13 13 13 13 13 12 12 13 15 18
9 10 10 11 12 12 13 14 14 14 14 14 15 15 14 14 14 14 13 12 13 13 13 13 15 16 16 16 15 16 17 18 19 19 18 18 18 19 19 18 19 20 21 22 23 25 25 26 26 26 24 18 15 12 11 10 11 13 14 14 13 12 12 12 12 12 12 13 14
Wind_Direction
163 159 153 145 144 151 157 151 163 195 237 271 293 300 300 297 298 298 298 296 296 297 299 299 300 302 304 306 307 306 305 302 300 299 297 296 295 296 296 295 294 293 292 291 290 288 286 284 281 278 274 271 269 267 265 264 266 267 267 266 266 266 266 266 265 265 264 263 263
151 145 142 145 161 172 177 177 178 196 220 252 280 295 298 297 297 297 297 297 297 297 296 293 296 298 301 304 306 304 302 300 298 296 295 293 293 292 292 291 290 289 289 288 287 286 284 282 280 277 274 271 268 266 264 261 261 262 262 262 263 263 264 264 264 264 264 264 263
137 141 149 162 173 180 185 196 244 266 275 284 289 292 292 289 289 291 293 294 295 294 292 291 295 298 301 303 303 301 299 296 295 294 292 291 290 290 289 288 287 286 284 283 282 281 280 279 278 275 272 269 267 266 264 262 261 261 261 261 261 260 261 261 262 263 264 263 262
128 136 147 159 165 142 42 0 314 309 308 307 299 290 283 282 283 285 287 290 290 289 289 292 296 298 298 297 295 294 292 291 291 290 289 288 288 287 287 286 285 284 282 280 279 277 276 275 274 272 270 269 267 266 264 263 262 262 262 261 261 260 260 260 261 261 262 262 262
122 122 117 90 63 53 45 3 311 305 305 304 292 284 279 277 275 277 279 282 284 287 291 296 297 294 290 288 288 289 289 288 288 287 287 286 286 285 284 283 282 281 281 279 277 276 274 273 272 270 269 268 267 266 265 264 264 263 262 262 261 260 261 260 260 260 260 260 260
122 123 124 117 101 88 67 325 304 300 295 285 280 280 281 282 284 287 289 291 291 293 295 296 293 288 284 283 285 286 287 287 286 286 285 285 284 283 282 281 280 279 278 277 275 274 272 270 269 267 266 266 265 264 264 264 263 262 262 261 260 260 260 260 260 259 259 259 259
131 145 153 151 149 166 242 275 278 275 272 269 274 278 283 289 291 293 294 295 294 294 293 291 286 283 282 283 284 285 286 287 286 286 285 284 283 281 281 280 279 278 276 275 274 273 271 268 266 265 264 263 264 263 261 261 261 261 261 260 260 259 260 260 261 261 260 260 260
188 198 204 196 199 222 248 261 269 272 273 273 278 282 286 289 290 290 290 290 289 289 289 286 284 283 283 284 284 284 284 284 284 283 282 281 281 280 280 279 278 276 274 273 272 270 269 267 265 264 263 262 262 261 261 260 260 261 261 261 262 261 260 260 260 260 260 260 260
235 228 225 227 233 248 262 270 275 278 280 281 282 284 286 287 287 287 286 285 286 287 287 285 285 284 283 283 283 283 283 282 281 280 279 278 278 278 278 277 276 274 273 271 269 268 267 265 263 261 261 261 261 261 262 261 261 261 261 261 262 261 260 260 259 259 259 259 259
233 231 230 234 240 254 266 273 274 276 277 279 280 282 283 283 282 281 282 283 285 286 285 284 285 285 285 285 284 283 282 280 279 278 277 276 275 275 275 274 274 273 273 272 271 270 269 267 264 262 261 261 261 262 262 261 261 260 260 259 260 260 260 260 259 259 258 258 258
228 232 236 243 247 257 267 273 274 274 275 277 280 282 282 281 281 282 283 286 285 284 283 284 284 285 284 283 282 280 278 277 276 275 275 274 274 274 274 273 273 273 273 272 272 272 270 268 267 265 264 263 262 262 262 260 259 258 257 257 257 258 258 258 258 258 258 258 257
221 226 233 242 250 259 267 271 274 276 277 280 283 285 286 287 288 289 290 289 287 286 286 286 286 286 284 282 280 278 277 276 276 276 276 276 275 275 275 275 274 274 274 273 273 271 270 268 267 266 266 265 264 263 262 261 260 258 257 256 256 255 255 255 255 255 256 256 256
218 226 233 241 251 259 265 270 274 278 281 285 288 291 293 294 295 295 294 291 290 290 290 290 289 286 284 282 281 280 280 280 279 279 279 278 278 278 278 277 277 276 275 275 273 271 270 268 267 267 267 266 265 264 263 262 261 260 259 258 256 255 254 254 253 253 253 254 255
218 228 238 247 255 262 269 275 280 284 288 292 295 297 299 299 298 297 295 293 292 292 292 291 289 287 286 286 286 285 285 284 283 282 281 281 280 280 279 278 277 276 275 274 272 270 269 268 268 268 267 267 266 265 264 263 263 262 261 260 259 258 257 255 254 254 254 254 254
222 231 240 250 260 269 278 286 290 294 297 299 301 302 302 300 298 296 295 294 294 293 292 291 290 289 288 288 287 286 286 285 284 283 282 281 280 279 279 278 277 277 276 274 273 271 270 270 269 269 269 268 268 267 265 264 263 262 262 261 261 260 259 258 257 256 255 255 254
229 238 247 258 270 281 289 295 298 300 302 302 303 303 301 299 298 296 296 295 294 292 291 291 291 290 289 287 286 285 285 284 283 282 282 281 281 280 280 279 279 278 278 277 275 273 272 270 270 270 270 269 269 268 267 266 265 264 263 262 262 261 261 261 260 259 258 257 256
240 251 262 274 284 292 297 301 302 303 303 303 303 301 300 298 297 296 295 294 293 292 292 292 291 291 289 288 287 285 285 284 283 282 282 282 282 282 282 281 281 280 280 279 277 276 274 272 271 270 270 269 269 269 268 267 266 265 264 263 263 262 262 262 261 261 260 259 258
255 267 278 288 295 300 303 305 304 303 303 302 301 300 298 297 296 295 294 293 292 292 292 292 291 289 288 288 287 286 285 284 284 283 283 283 284 283 283 283 282 282 281 280 279 278 276 275 274 273 271 270 269 269 268 268 267 266 266 265 264 263 263 262 262 261 261 260 259
271 281 291 298 303 305 306 306 305 303 302 301 299 298 296 296 295 294 293 292 292 292 292 291 290 289 288 288 287 286 285 284 284 284 284 284 284 284 283 283 283 283 282 281 279 278 277 277 276 274 273 272 271 270 270 269 269 268 268 268 267 266 265 264 263 263 262 261 260
285 294 301 306 308 308 307 306 304 302 301 299 297 296 295 295 294 293 292 292 292 292 291 290 290 289 289 289 288 287 286 285 285 285 285 285 285 284 284 284 284 283 282 281 280 279 279 278 278 277 276 276 276 275 275 275 275 274 274 274 273 272 271 270 268 267 266 264 263
296 303 307 309 309 308 306 305 303 301 299 297 296 296 296 295 294 294 293 293 293 293 291 290 290 290 290 290 290 289 288 287 287 287 287 286 285 285 284 284 284 283 283 282 282 282 282 282 282 281 281 281 280 280 279 279 279 278 277 277 276 275 275 274 273 272 271 269 267
305 308 309 309 308 307 305 303 301 299 298 297 297 297 297 296 296 295 295 294 294 293 292 292 291 291 291 291 291 291 291 289 288 287 287 286 285 284 284 284 284 284 284 284 284 284 284 284 283 282 282 281 280 279 278 277 276 276 275 274 273 273 273 272 272 272 271 271 270
308 309 309 308 307 305 303 302 300 299 298 298 298 298 298 298 298 298 297 296 295 294 293 292 292 291 291 291 291 291 290 289 287 286 285 284 283 284 284 285 285 286 285 285 284 284 284 283 283 282 281 280 279 278 277 276 275 274 273 272 272 270 269 268 268 267 267 267 268
308 308 308 308 307 305 304 302 301 300 300 300 300 300 300 300 300 299 298 297 296 295 293 291 290 290 290 290 289 288 287 286 285 285 284 284 284 285 286 287 286 285 284 283 282 282 283 283 283 283 281 280 279 278 277 276 275 274 273 273 272 271 269 268 266 265 264 264 263
308 308 308 307 306 305 304 303 302 301 301 301 302 302 302 302 302 301 300 298 296 294 293 291 290 290 289 288 286 285 284 283 284 285 286 286 287 287 288 287 286 284 283 281 281 281 280 279 279 280 280 279 278 277 276 274 273 273 273 272 272 271 270 268 266 265 264 263 262
309 308 308 307 306 305 304 303 303 302 302 303 303 303 303 304 304 303 301 299 297 296 294 293 291 289 287 285 284 283 283 283 284 286 287 288 289 288 288 286 284 283 281 280 280 280 278 277 276 275 275 276 276 276 275 273 272 271 271 270 270 270 269 268 267 265 263 262 261
310 309 309 308 306 305 304 304 303 303 303 304 304 305 306 307 306 304 301 299 298 297 295 292 289 286 284 283 283 284 286 287 287 288 288 288 288 288 288 286 285 282 280 279 279 278 277 276 275 274 273 273 273 273 273 272 271 270 269 269 268 268 267 267 267 266 264 262 261
311 311 309 308 306 305 304 304 304 305 305 306 307 307 307 306 304 302 300 299 298 297 294 290 287 286 285 285 287 288 289 290 289 289 288 287 288 288 288 288 286 283 281 281 281 280 279 278 277 276 275 273 273 272 272 272 271 271 269 267 266 265 265 265 265 265 264 262 260
311 310 309 307 306 305 305 305 306 307 307 308 308 307 306 304 302 300 299 298 297 296 294 292 290 289 289 290 291 292 291 289 288 288 288 289 290 290 290 289 287 284 283 283 283 282 281 280 279 278 277 275 274 272 271 270 270 269 268 267 266 265 265 264 264 263 263 262 260
310 309 308 307 306 306 306 307 308 308 309 307 307 305 304 302 301 299 299 297 296 296 296 296 295 293 292 292 292 291 290 289 289 290 291 292 293 293 292 290 288 286 285 285 285 284 283 283 282 281 280 278 276 274 271 270 269 268 267 267 266 266 265 265 265 264 263 262 261
309 309 308 307 306 306 307 308 309 308 308 306 305 304 302 301 300 299 298 298 298 298 297 296 295 293 293 292 292 291 291 292 293 294 295 296 295 294 292 290 289 288 287 287 286 286 285 285 284 283 282 281 278 275 272 270 268 267 266 265 265 264 264 264 263 263 262 261 261
309 308 308 307 306 307 307 309 308 307 306 304 303 302 301 300 299 299 300 301 300 300 298 297 296 295 294 294 294 294 295 296 297 298 298 297 296 294 292 290 289 288 288 288 287 287 286 286 285 284 284 283 280 276 273 270 268 267 265 264 264 263 263 262 262 261 261 260 260
308 307 307 307 307 307 307 307 306 305 304 303 302 301 301 300 301 301 301 300 299 299 298 298 298 297 297 297 297 297 298 298 299 298 298 296 295 293 292 290 289 288 288 289 288 288 287 287 287 286 285 284 282 278 274 270 268 266 264 263 263 262 261 261 260 260 260 259 259
306 306 306 307 307 306 306 305 304 303 302 300 300 301 301 302 302 301 300 299 299 299 298 298 298 297 297 298 298 299 300 300 299 298 297 296 295 293 292 291 289 289 289 289 289 289 289 289 288 288 287 286 283 279 275 271 268 266 264 263 263 262 261 260 259 259 258 258 257
308 308 308 307 306 304 303 303 302 301 300 300 301 302 302 301 301 300 300 300 301 300 298 297 298 298 298 299 299 300 300 299 298 297 296 295 295 293 292 291 289 289 290 290 290 290 290 290 289 288 287 286 284 279 275 272 270 268 266 265 264 263 261 260 259 258 257 256 255
312 311 308 305 303 302 302 302 302 301 301 301 302 301 301 300 300 301 302 303 302 300 299 299 300 300 301 302 301 300 299 298 297 296 295 294 294 293 292 292 291 291 292 292 292 291 291 290 289 288 288 287 283 279 276 274 271 269 267 266 265 264 262 260 259 257 256 255 253
312 309 305 302 301 301 301 302 302 302 302 301 301 300 300 301 301 302 304 304 303 301 301 302 303 303 304 304 302 300 298 297 296 296 295 295 294 294 293 293 292 293 293 293 293 292 291 290 289 288 288 286 283 280 278 275 273 270 269 268 266 264 262 260 259 257 255 253 252
312 308 304 301 301 301 302 302 302 301 301 301 301 301 302 303 303 304 305 305 303 302 302 303 304 304 304 303 301 298 297 296 296 296 296 295 294 294 293 293 293 293 293 293 292 291 290 289 288 288 287 285 283 281 279 276 273 271 270 268 267 265 263 261 258 256 254 252 250
311 307 305 302 302 302 301 301 301 301 301 301 302 303 304 304 304 304 305 304 302 301 302 303 303 303 303 302 299 298 297 296 296 296 296 295 294 293 292 292 292 292 292 292 291 290 289 288 288 287 287 286 284 282 279 276 274 273 272 271 270 269 267 265 262 259 256 253 250
307 305 303 302 301 301 301 301 301 301 301 302 302 303 303 304 303 303 302 301 300 301 302 302 303 303 302 301 299 298 298 298 297 297 296 295 293 292 291 290 290 290 290 290 289 288 288 287 287 288 288 287 285 284 282 280 279 279 279 278 277 276 275 273 270 267 264 260 255
303 302 301 301 300 300 301 301 302 302 302 302 302 303 303 303 302 301 301 300 302 303 303 303 303 302 302 301 299 299 298 298 298 297 296 295 293 292 291 290 290 290 290 289 288 288 287 288 288 289 289 289 289 289 290 290 289 289 289 288 287 286 284 282 280 277 273 270 266